Tracking 19827 objects as of 21-Aug-2019
HD Live streaming from Space Station
objects crossing your sky now

RADUGA 1-4

Track RADUGA 1-4 now!
RADUGA 1-4 is classified as:


NORAD ID: 25642
Int'l Code: 1999-010A
Perigee: 35,798.1 km
Apogee: 35,830.6 km
Inclination: 14.7 °
Period: 1,437.1 minutes
Semi major axis: 42185 km
RCS: 12.5893 m2 (large)
Launch date: February 28, 1999
Source: Commonwealth of Independent States (former USSR) (CIS)
Launch site: TYURATAM MISSILE AND SPACE COMPLEX (TTMTR)

Military communication.
aabbcc
Your satellite tracking list
Your tracking list is empty




NASA's NSSDC Master Catalog

Two Line Element Set (TLE):
1 25642U 99010A   19232.49600608 +.00000041 +00000-0 +00000-0 0  9993
2 25642 014.7168 023.0971 0003855 270.3963 272.5086 01.00198378074953
Source of the keplerian elements: AFSPC